Torna al catalogo

STARLINK-32431

AttivoComunicazioniVLEO
NORAD 61256·PAYLOAD·🇺🇸 United States

Lanciato Sep 25, 2024 da Vandenberg Space Force Base

Loading…

Prossimi Passaggi (prossime 24 ore)

TLE

AggiornatoSource: CelesTrak SupGP

Epoca: Sep 14, 2026, 21:16 UTC

1 61256C 24175P   26257.88659722  .00045045  00000+0  13320-2 0  2573
2 61256  53.1583  32.0209 0001153  78.7578   2.4246 15.34342475    12

Traccia STARLINK-32431 in tempo reale con AllMySat

Download on the App Store